Voltar ao catálogo

STARLINK-3712

AtivoComunicaçõesVLEO
NORAD 52090·PAYLOAD·🇺🇸 United States

Lançado Mar 19, 2022 de Cape Canaveral Space Force Station

Loading…

Próximas Passagens (próximas 24 horas)

TLE

AtualizadoSource: CelesTrak SupGP

Época: Sep 14, 2026, 20:49 UTC

1 52090C 22029C   26257.86784722 -.00015686  00000+0 -47609-3 0  2570
2 52090  53.1585 308.0521 0001283  84.1147 291.6967 15.33550118    16

Acompanhe STARLINK-3712 em tempo real com AllMySat

Download on the App Store